Regional Weather Roundup
Issued by NWS

Home | Current Version | Previous Version | Text Only | Print | Product List | Glossary Off
Versions: 1 2 3 4 5 6 7 8 9 10 11 12 13 14 15 16 17 18 19 20 21 22 23 24 25 26 27 28 29 30 31 32 33 34 35 36 37 38 39 40 41 42 43 44 45 46 47 48 49 50

000
ASUS43 KMPX 262101
RWRMN
WEATHER ROUNDUP FOR MINNESOTA
NATIONAL WEATHER SERVICE TWIN CITIES/CHANHASSEN MN
400 PM CDT FRI MAY 26 2017


NOTE: "FAIR" INDICATES FEW OR NO CLOUDS BELOW 12,000 FEET WITH NO
SIGNIFICANT WEATHER AND/OR OBSTRUCTIONS TO VISIBILITY. N/A MEANS
CURRENT SKY AND/OR WEATHER CONDITIONS ARE NOT AVAILABLE.

MNZ060>063-068>070-262200-
   Twin Cities Metro

CITY           SKY/WX    TMP DP  RH WIND       PRES   REMARKS
TWIN CITIES    PTSUNNY   78  54  43 SW8       29.72F
ST PAUL        MOSUNNY   78  59  51 S10       29.72F
CRYSTAL        PTSUNNY   76  54  46 S10       29.70F
BLAINE         MOSUNNY   79  55  44 SW9       29.71F
LAKEVILLE      MOSUNNY   77  57  50 SW7       29.73F
EDEN PRAIRIE   PTSUNNY   77  56  48 W3        29.71F
SOUTH ST PAUL  MOSUNNY   76  55  48 SW3       29.72F
LAKE ELMO      FAIR      75  61  60 S8G17     29.74F
$$
MNZ001>005-007-008-013>017-022>024-027-028-262200-
   Northwest Minnesota

CITY           SKY/WX    TMP DP  RH WIND       PRES   REMARKS
BEMIDJI        PTSUNNY   71  45  38 W13G20    29.68S
HALLOCK        PTSUNNY   66  43  42 W17G24    29.65S
ROSEAU         MOSUNNY   68  50  52 SW12G22   29.64R
WARROAD        MOSUNNY   70  52  52 SW14G22   29.64R
CROOKSTON      MOSUNNY   68  45  42 W21G28    29.69S
FOSSTON        MOSUNNY   70  43  37 W13G26    29.70R
DETROIT LAKES  MOSUNNY   70  43  37 W13G22    29.73S
MOORHEAD       SUNNY     72  39  30 W13G20    29.73R
PARK RAPIDS    LGT RAIN  74  45  35 W17       29.70S
MAHNOMEN       MOCLDY    70  43  37 W18G29    29.70S
$$
MNZ006-009>011-018-025>026-262200-
   North Central Minnesota

CITY           SKY/WX    TMP DP  RH WIND       PRES   REMARKS
BAUDETTE       PTSUNNY   73  42  32 W14G21    29.62S
FLAG ISLAND    CLOUDY    66  45  45 SW16      29.60S
INTL FALLS     PTSUNNY   74  43  32 W13G21    29.62S
WASKISH        CLOUDY    72  48  43 W10       29.66S
BIG FORK       MOSUNNY   75  48  38 SW15      29.65S
LONGVILLE      MOSUNNY   73  46  38 SW10      29.69R
GRAND RAPIDS   PTSUNNY   73  48  41 SW10G18   29.68S
CRANE LAKE     CLOUDY    55  55 100 SE3       29.67F
COOK           CLOUDY    61  55  82 SE7       29.69R
WALKER         FAIR      72  44  37 SW16G22   29.69R
$$
MNZ012-019>021-037-262200-
   Northeast Minnesota

CITY           SKY/WX    TMP DP  RH WIND       PRES   REMARKS
DULUTH         MOSUNNY   65  53  65 SE13      29.70S
ELY            MOSUNNY   73  52  46 S16G22    29.67S
HIBBING        CLOUDY    65  54  67 W9        29.67R THUNDER
EVELETH        TSTM      66  52  59 SW6       29.69R
DULUTH HARBOR  MOSUNNY   50  46  87 NE6       29.73S
TWO HARBORS    MOSUNNY   70  57  64 E7        29.69F
SILVER BAY     MOSUNNY   64  54  68 E8        29.71F
GRAND MARAIS     N/A     48  44  86 NE6       29.75F
G MARAIS ARPRT CLOUDY    61  48  63 SE6       29.77S
$$
MNZ029>031-032-039>041-046>048-054>057-064-262200-
   West Central Minnesota

CITY           SKY/WX    TMP DP  RH WIND       PRES   REMARKS
FERGUS FALLS   SUNNY     70  46  43 W13G20    29.71F
WHEATON        SUNNY     72  39  30 W13G28    29.77R
MORRIS         SUNNY     73  45  35 W14       29.74F
ALEXANDRIA     PTSUNNY   72  45  37 W14       29.75S
ELBOW LAKE     FAIR      70  45  39 NW14G25   29.74F
WADENA         MOSUNNY   72  46  40 W16G24    29.72S
GLENWOOD       MOSUNNY   72  46  40 W16G22    29.76S
APPLETON       SUNNY     73  41  31 W18G24    29.75F
BENSON         SUNNY     73  43  33 NW13G21   29.76F
ORTONVILLE     SUNNY     72  43  35 W13G18    29.76S
MADISON        SUNNY     73  46  38 NW9       29.77S
WILLMAR        FAIR      73  46  38 W13       29.76F
$$
MNZ033>034-036-042>043-049>051-058-059-262200-
   Central Minnesota

CITY           SKY/WX    TMP DP  RH WIND       PRES   REMARKS
ST CLOUD       SUNNY     75  51  43 W16       29.72R
SAUK CENTRE    MOCLDY    70  48  45 W14G24    29.75R
PAYNESVILLE    MOSUNNY   74  44  35 W16       29.76R
AITKIN         PTSUNNY   73  50  43 W9        29.67S
PINE RIVER     MOSUNNY   73  48  40 W10G17    29.74R
BRAINERD       MOSUNNY   74  45  35 W15G22    29.70R
STAPLES        PTSUNNY   72  43  35 W15       29.73R
LONG PRAIRIE   FAIR      70  46  43 SW9       29.75S
LITTLE FALLS   SUNNY     72  41  33 W13G18    29.73R
LITCHFIELD     MOSUNNY   75  52  43 W9G21     29.75S
BUFFALO        SUNNY     76  49  38 W12G17    29.73R
MAPLE LAKE     MOSUNNY   76  52  43 W12       29.74R
HUTCHINSON     MOSUNNY   77  50  39 W13G20    29.75S
$$
MNZ037-044-045-052-053-262200-
   East Central Minnesota

CITY           SKY/WX    TMP DP  RH WIND       PRES   REMARKS
PRINCETON      MOSUNNY   79  55  44 W13       29.71S
MORA           SUNNY     75  55  50 SW13      29.71F
CAMBRIDGE      MOSUNNY   79  59  50 S9G16     29.69S
RUSH CITY      SUNNY     76  55  48 SW9       29.71S
MOOSE LAKE     CLOUDY    73  54  49 S9        29.66F
HINCKLEY       FAIR      75  59  57 S14       29.69F
CLOQUET        CLOUDY    68  50  52 E8        29.68F
MCGREGOR       CLOUDY    72  55  56 W6        29.68F
$$
MNZ071>073-080-081-089-090-097-098-262200-
   Southwest Minnesota

CITY           SKY/WX    TMP DP  RH WIND       PRES   REMARKS
MONTEVIDEO     SUNNY     75  45  33 NW14      29.76S
CANBY          SUNNY     72  46  40 NW12G23   29.79S
MARSHALL       MOSUNNY   72  48  42 W15       29.79R
REDWOOD FALLS  MOSUNNY   75  47  36 W12       29.75S
OLIVIA         MOSUNNY   73  46  38 W10       29.75S
PIPESTONE      SUNNY     72  37  28 NW14G20   29.82S
WINDOM         SUNNY     75  45  33 W12G23    29.78S
WORTHINGTON    SUNNY     74  47  38 W14G24    29.80S
JACKSON        SUNNY     77  45  31 W13G20    29.79R
TRACY          SUNNY     74  49  41 NW15G23   29.80R
SLAYTON        SUNNY     71  44  37 W16G23    29.82R
$$
MNZ065>067-074>077-082>085-091>093-262200-
   South Central Minnesota

CITY           SKY/WX    TMP DP  RH WIND       PRES   REMARKS
MANKATO        SUNNY     78  51  38 W10       29.75R
NEW ULM        SUNNY     75  48  38 W16G25    29.75S
ST JAMES       SUNNY     79  52  38 NW9       29.76S
FAIRMONT       MOSUNNY   78  51  38 W10G18    29.76S
GLENCOE        MOSUNNY   79  54  42 W16G23    29.73S
FARIBAULT      MOSUNNY   79  57  47 SW5       29.75S
OWATONNA       SUNNY     77  55  47 S9        29.75F
WASECA         PTSUNNY   77  55  47 SW7       29.76S
ALBERT LEA     MOSUNNY   75  59  57 SW6       29.76F
$$
MNZ078>079-086>088-094>096-262200-
   Southeast Minnesota

CITY           SKY/WX    TMP DP  RH WIND       PRES   REMARKS
ROCHESTER      SUNNY     72  57  59 S12       29.78F
RED WING       PTSUNNY   75  54  46 S7        29.74S
STANTON        PTSUNNY   75  56  50 S7        29.73S
DODGE CENTER   PTSUNNY   73  55  53 S9        29.78R
WINONA         MOSUNNY   73  57  56 S3        29.78S
AUSTIN         PTSUNNY   73  57  56 S5        29.77S
PRESTON        PTSUNNY   69  55  61 S9        29.80S
$$
ABBREVIATIONS USED IN REMARKS
   TC - TEMPERATURES IN CELSIUS
  WCI - WIND CHILL INDEX
   HX - HEAT INDEX
  VSB - VISIBILITY
$$




USA.gov is the U.S. government's official web portal to all federal, state and local government web resources and services.